Probability
0 0 0 0 0 0 0 0 0 0 0 0 1 2 1 4 9 10 10 14 20 21 19 20 22 22 19 15 10 6 3 2 1 1 0 0 1 1 1 1 0 0 0 0
0 0 0 0 0 0 0 0 0 0 0 0 1 2 1 3 7 8 8 11 19 23 23 21 20 17 14 12 9 6 3 3 3 3 1 1 1 2 2 2 1 0 0 0
0 0 0 0 0 0 0 0 0 0 0 0 1 1 0 1 3 4 5 9 16 22 23 20 15 11 8 9 8 6 4 4 5 5 3 2 1 2 2 2 1 0 0 0
0 0 0 0 0 0 0 0 0 0 0 0 1 0 0 0 1 1 2 6 12 16 16 14 11 7 5 5 5 4 4 4 5 5 4 3 2 2 2 2 1 0 0 0
0 0 0 0 0 0 0 0 0 0 0 0 0 0 0 0 0 0 0 3 6 9 9 8 8 6 3 3 2 2 3 4 4 4 4 3 3 2 1 1 1 0 0 0
0 0 0 0 0 0 0 0 0 0 0 0 0 0 0 0 0 0 0 1 3 4 3 3 4 4 3 2 1 1 2 3 3 3 3 3 3 2 1 1 0 0 0 0
0 0 0 0 0 0 0 0 0 0 0 0 0 0 0 0 0 0 0 1 2 1 0 1 2 3 3 2 1 1 2 3 3 3 3 3 3 3 2 2 1 1 0 0
0 0 0 0 0 0 0 0 0 0 0 0 0 0 0 0 0 0 0 0 1 0 0 1 2 3 3 1 1 1 2 2 3 3 3 2 2 2 3 3 3 2 1 0
0 0 0 0 0 0 0 0 0 0 0 0 0 0 0 0 0 0 0 1 1 1 0 0 1 2 2 1 0 1 1 1 2 2 2 1 1 1 1 2 3 3 2 1
0 0 0 0 0 0 0 0 0 0 0 0 0 0 0 0 0 0 0 1 1 1 0 0 0 1 1 0 0 1 1 1 2 3 2 1 0 0 0 1 1 2 2 1
0 0 0 0 0 0 0 0 0 0 0 0 0 0 0 0 0 0 0 0 0 0 0 1 1 0 0 0 0 1 2 3 3 3 2 1 0 0 0 0 0 1 1 0
0 0 0 0 0 0 0 0 0 0 0 0 0 0 0 0 0 0 0 0 0 0 1 2 1 0 0 0 0 1 3 3 3 3 2 1 0 0 0 0 0 0 0 0
0 0 0 0 0 0 0 0 0 0 0 0 0 0 0 0 0 0 0 0 0 1 1 2 2 1 0 0 1 2 3 3 3 3 2 1 0 0 0 1 1 0 0 0
0 0 0 0 0 0 0 0 0 0 0 0 0 0 0 0 0 0 0 0 1 2 3 3 2 1 1 1 1 1 3 3 3 3 2 1 0 0 0 1 1 0 0 0
0 0 0 0 0 0 0 0 0 0 0 0 0 0 0 0 0 0 1 1 1 2 2 2 1 1 0 1 1 1 1 2 3 4 3 2 1 0 0 0 0 0 0 0
0 0 0 0 0 0 0 0 0 0 0 0 0 0 0 1 1 1 1 1 1 1 1 1 0 0 0 0 0 0 0 1 3 5 5 4 3 1 0 0 0 1 0 0
0 0 0 0 0 0 0 0 0 0 0 0 0 1 2 2 4 3 1 0 0 0 0 0 0 0 0 0 0 0 0 1 3 5 6 6 5 3 1 0 0 0 0 0
0 0 0 0 0 0 0 0 0 0 0 0 1 3 4 4 4 3 1 0 0 0 0 0 0 0 0 0 0 0 0 1 1 3 6 6 6 4 2 0 0 0 0 0
0 0 0 0 0 1 0 0 0 1 1 1 2 3 3 2 2 2 1 0 0 0 0 0 0 0 0 0 0 0 0 0 1 3 5 6 5 4 2 0 0 0 0 0
0 0 0 0 0 0 0 0 0 1 1 1 1 1 1 1 0 1 1 0 1 1 1 1 1 1 1 1 0 0 0 0 1 4 5 5 4 3 2 0 0 0 0 0
0 0 0 0 0 0 0 0 0 0 1 1 0 0 0 0 0 0 0 0 1 2 3 3 2 2 2 1 0 1 1 1 2 4 5 5 4 3 1 0 0 0 0 0
0 0 0 0 0 0 0 0 0 0 0 1 1 0 0 1 1 1 1 1 2 3 5 4 3 2 2 1 1 2 3 3 4 4 4 3 3 2 1 0 0 0 0 0
0 0 0 0 0 0 0 0 0 1 1 1 1 1 1 2 2 2 2 2 3 4 4 3 2 1 1 1 2 4 4 4 4 4 2 1 1 1 0 0 0 0 0 0
0 0 0 0 0 0 0 0 0 1 1 0 0 0 1 2 3 3 3 3 2 3 3 3 2 1 1 1 1 3 3 3 2 2 1 0 0 0 0 0 0 0 0 0
0 0 0 0 0 0 0 0 0 1 1 0 0 0 0 1 2 2 2 2 2 1 1 2 3 3 2 1 0 1 1 1 1 1 0 0 0 0 0 0 0 0 0 0
0 0 0 0 0 0 0 0 0 0 0 0 0 0 0 0 1 1 1 1 1 0 0 1 3 3 2 1 0 0 0 0 0 0 0 0 0 0 0 0 0 0 0 0
Wind_Speed
4 4 5 7 7 5 2 2 7 8 4 2 3 3 3 2 2 3 3 4 5 5 5 6 6 7 8 9 9 10 10 8 7 5 4 4 4 3 3 3 4 5 5 5
3 4 8 5 4 3 3 4 6 7 2 1 2 4 3 2 3 4 4 5 6 5 5 6 7 8 9 10 10 10 9 8 7 5 4 3 3 3 2 3 3 4 5 5
8 6 4 6 4 4 4 5 6 5 4 3 2 5 3 2 1 2 3 4 5 7 8 8 9 9 9 10 11 10 9 8 8 7 5 4 3 3 2 2 3 4 5 5
5 6 3 4 5 5 6 6 6 4 1 3 1 3 7 3 3 3 2 2 5 6 7 8 9 10 10 9 8 8 8 8 8 8 7 7 5 4 4 4 3 4 5 5
7 5 6 8 8 8 8 2 1 1 2 1 2 2 8 3 4 5 3 3 4 5 7 8 8 8 8 8 8 8 8 8 8 8 8 7 5 4 3 3 4 4 3 4
6 4 6 8 6 7 4 5 5 5 5 1 3 2 7 4 6 3 3 3 4 5 6 6 5 6 7 7 7 8 8 7 8 8 8 8 7 6 6 5 5 4 2 3
4 4 5 4 2 1 4 6 4 5 4 5 2 2 9 6 5 4 4 5 5 5 6 7 7 7 7 8 8 8 9 8 8 9 8 8 8 8 8 6 6 5 4 3
4 6 6 7 9 7 6 10 8 5 5 5 2 5 8 4 2 1 3 5 6 7 7 7 8 8 7 8 8 8 8 8 8 8 7 7 7 6 5 6 5 6 5 5
8 7 5 5 6 11 7 5 7 8 3 1 5 6 8 1 0 1 2 5 7 7 7 8 8 7 7 7 7 8 8 7 7 8 7 6 7 6 6 5 5 4 4 5
10 4 4 2 4 2 6 9 6 7 6 3 4 4 5 4 3 2 3 5 6 6 6 6 6 6 5 5 6 6 7 7 7 7 7 7 7 7 6 5 6 5 5 5
7 5 3 2 3 5 5 5 6 5 5 7 3 7 6 6 5 5 5 5 6 7 7 6 5 5 5 5 5 6 6 6 6 7 6 6 6 6 5 5 6 5 5 5
6 6 3 4 3 2 5 7 8 7 4 4 4 8 4 3 3 4 4 4 4 5 5 6 6 6 6 5 5 5 5 6 6 6 6 6 5 5 5 5 5 5 5 5
7 7 3 4 5 2 3 3 4 7 6 5 4 7 3 1 1 2 3 3 3 5 5 5 5 5 6 5 4 4 5 5 5 6 6 5 5 5 5 5 4 5 5 5
7 5 7 10 8 4 3 3 5 6 5 5 6 6 4 3 2 2 2 2 3 4 5 5 5 5 5 4 4 4 4 4 5 5 6 5 5 5 5 4 5 5 5 6
6 4 2 3 3 4 3 4 6 5 7 8 7 6 7 5 4 3 4 4 4 4 4 5 5 4 4 4 4 4 3 3 4 5 5 5 5 5 5 5 5 5 6 6
4 4 2 1 1 3 2 1 4 3 3 3 2 5 3 1 2 3 3 5 4 4 4 5 5 5 4 4 4 4 4 4 4 5 5 4 5 6 6 5 6 6 6 6
3 5 4 1 1 3 1 2 3 3 1 3 5 5 1 1 2 3 3 4 4 4 4 5 4 4 4 4 4 5 5 5 5 5 4 5 6 6 6 6 6 6 6 6
5 5 4 3 2 3 5 1 3 5 1 1 0 0 1 2 2 2 2 4 4 4 4 4 4 4 3 4 4 5 5 6 6 6 6 6 6 7 7 7 7 7 7 7
4 7 5 4 3 1 2 0 2 4 0 0 1 2 3 3 3 3 3 2 2 3 3 4 4 4 5 5 6 7 6 6 6 6 6 6 7 8 8 8 8 8 8 8
5 5 6 5 5 6 6 1 1 4 1 1 2 3 3 2 2 1 1 2 3 3 3 4 4 5 5 5 7 8 7 7 7 7 7 7 7 8 9 9 9 8 9 9
4 4 4 4 3 5 3 3 1 4 6 2 3 3 3 2 3 2 3 3 3 4 4 5 6 5 4 5 7 8 8 7 7 8 9 9 9 9 10 10 9 10 10 10
4 4 3 4 3 6 2 1 3 4 1 1 1 1 2 2 2 3 3 4 4 4 5 5 6 6 5 5 8 9 8 8 9 10 11 10 10 9 9 11 10 9 10 10
2 4 4 5 5 2 1 1 2 1 1 1 1 1 2 3 3 3 3 4 4 4 4 5 7 7 6 6 7 9 8 9 11 12 11 11 11 10 9 10 10 8 8 8
0 1 3 1 2 1 1 1 2 1 1 0 1 1 2 3 3 4 4 4 5 5 5 5 7 8 7 7 8 9 9 10 12 12 11 10 11 11 9 8 7 7 7 7
2 2 2 1 2 1 2 2 2 2 2 2 1 1 2 4 4 5 5 5 5 5 5 6 7 9 9 9 9 8 9 11 13 12 11 11 11 11 10 10 8 8 6 5
2 4 5 5 5 4 3 1 2 2 2 1 2 3 2 4 5 6 6 6 6 7 7 8 9 10 9 10 10 8 8 10 12 12 10 9 9 9 9 10 11 16 13 14
Wind_Direction
135 112 193 202 190 190 198 258 282 278 291 329 293 289 284 218 175 170 178 189 193 187 163 150 156 163 160 166 169 173 169 167 157 154 157 157 167 162 159 163 167 168 162 159
83 236 221 194 185 193 219 273 283 294 338 341 306 302 289 221 213 201 194 201 193 168 161 164 165 170 173 176 176 177 174 165 165 164 154 150 145 148 148 150 158 162 160 160
179 224 189 176 199 212 237 224 250 267 330 4 9 324 304 286 248 218 203 192 188 180 175 175 176 176 176 180 180 178 174 166 164 155 136 126 108 96 122 155 165 169 166 165
217 239 202 202 218 188 255 232 227 250 312 303 45 292 292 288 296 253 220 174 186 179 175 179 179 181 181 181 174 170 168 167 161 157 164 164 166 172 185 174 172 163 166 166
222 207 191 212 222 185 221 221 201 239 177 322 353 189 284 312 276 257 221 188 184 179 176 179 175 174 172 172 169 166 164 167 162 168 173 170 171 171 155 149 158 162 163 166
225 216 192 204 212 190 183 72 52 48 73 314 253 185 276 253 239 254 210 187 175 175 170 162 155 153 156 158 162 164 167 168 165 171 175 175 174 165 158 167 170 167 161 163
272 257 227 186 193 195 126 94 30 0 12 252 261 217 251 258 243 228 204 185 169 169 162 154 155 160 164 165 168 168 171 173 170 175 179 180 179 175 179 179 179 172 171 177
203 272 231 194 186 184 173 146 159 191 219 272 306 242 257 266 253 214 174 164 163 169 171 169 171 170 171 171 170 170 177 177 173 175 179 180 178 177 185 183 180 182 185 184
182 247 272 220 185 151 144 176 162 132 148 283 286 286 302 252 248 123 147 159 173 177 176 173 168 167 169 171 173 173 175 176 178 178 175 176 177 179 185 183 182 186 184 179
158 219 283 288 100 89 144 144 110 125 147 221 288 282 259 266 232 196 188 184 181 176 170 165 163 162 165 167 165 165 173 181 181 180 182 183 182 183 183 177 184 187 186 178
147 172 293 20 150 174 121 112 112 115 146 154 224 268 232 226 215 198 201 195 181 175 172 163 157 156 157 157 160 167 173 175 178 182 182 178 180 179 174 180 186 183 178 173
154 136 220 264 270 196 151 157 146 146 185 163 168 261 279 215 203 196 202 192 174 169 161 154 150 152 154 160 164 169 176 179 181 175 172 175 171 169 174 185 184 174 172 170
137 125 115 340 338 9 109 135 136 120 115 144 164 261 319 94 158 186 190 186 164 150 143 143 144 149 154 160 164 167 173 177 168 162 165 167 170 173 179 181 173 164 162 156
118 117 159 188 207 191 160 148 146 123 135 176 211 243 281 263 220 189 174 159 140 143 148 150 149 151 153 156 155 157 167 168 162 158 160 171 181 178 172 160 151 150 148 143
105 125 169 206 201 158 165 169 163 157 170 172 213 220 248 243 219 196 164 141 135 140 149 155 152 149 149 151 150 153 157 153 153 153 161 173 170 160 148 141 136 131 132 136
75 120 114 30 39 143 126 143 153 149 159 176 184 242 264 305 119 138 151 151 154 159 154 155 154 149 151 153 153 154 152 146 139 148 160 155 146 140 135 132 128 125 123 121
87 114 108 183 317 83 148 228 164 142 167 166 192 229 327 54 120 156 164 160 159 158 153 155 156 150 151 152 155 157 150 135 133 136 134 127 127 126 126 124 119 117 113 105
129 106 115 130 111 183 239 313 130 121 77 357 226 196 138 141 125 83 120 142 145 146 143 143 145 144 138 132 136 135 130 130 131 127 119 114 117 116 113 112 108 102 97 96
141 132 118 122 148 216 264 189 144 140 248 319 138 104 99 112 84 50 49 79 137 140 135 131 137 140 137 135 135 127 123 123 125 124 118 118 117 116 113 110 106 101 97 91
58 91 113 126 147 207 225 259 259 111 266 236 152 155 155 117 112 219 82 79 92 103 113 121 121 117 122 128 129 122 121 119 120 120 117 114 113 112 109 108 103 97 95 91
51 55 104 139 174 242 256 300 106 161 225 208 177 178 166 172 195 174 122 98 98 96 100 111 113 110 111 116 116 114 113 112 111 107 102 99 99 103 106 103 100 101 98 93
146 134 148 134 164 237 310 68 171 210 239 147 172 172 152 140 130 127 117 110 100 93 91 99 102 94 89 103 110 107 106 107 106 104 101 99 99 101 103 103 99 98 101 98
154 178 173 174 200 241 315 236 281 232 165 158 158 174 154 155 159 139 123 116 103 93 89 92 98 90 78 79 100 106 104 108 107 103 101 100 96 95 99 103 104 99 94 95
290 114 121 129 254 261 320 338 346 340 293 272 172 177 168 174 165 145 132 122 112 101 98 101 104 100 89 82 88 100 105 103 104 104 101 100 98 93 86 84 90 97 100 103
218 142 119 193 245 324 331 356 353 7 20 30 50 121 160 153 153 142 128 119 113 104 99 102 104 102 97 94 91 93 101 106 105 103 102 100 98 98 88 77 65 75 65 99
210 173 167 208 209 183 231 296 341 2 14 44 86 77 90 129 133 122 118 115 112 108 103 102 102 101 97 95 92 89 96 107 110 108 104 103 103 100 99 96 81 60 72 76